| time (UTC) | temp C | wind direction | speed KPH | gust KPH | rain 1hr cm | rain 24hr cm | rain mn cm | humidity % | barometer mb |
| 20260503054528 | 8 | 291 | 0.0 | 0.0 | 0.00 | 0.00 | 0.00 | 79 | 923.8 |
| 20260503053015 | 10 | 291 | 0.0 | 0.0 | 0.00 | 0.00 | 0.00 | 76 | 923.8 |
| 20260503051542 | 10 | 291 | 0.0 | 0.0 | 0.00 | 0.00 | 0.00 | 75 | 923.9 |
| 20260503050041 | 11 | 290 | 0.0 | 0.0 | 0.00 | 0.00 | 0.00 | 73 | 923.9 |
| 20260503044547 | 11 | 290 | 0.0 | 0.0 | 0.00 | 0.00 | 0.00 | 70 | 923.9 |
| 20260503043040 | 12 | 291 | 0.0 | 0.0 | 0.00 | 0.00 | 0.00 | 67 | 923.8 |
| 20260503041539 | 13 | 291 | 0.0 | 0.0 | 0.00 | 0.00 | 0.00 | 63 | 923.6 |
| 20260503040039 | 15 | 290 | 0.0 | 0.0 | 0.00 | 0.00 | 0.00 | 55 | 923.5 |
| 20260503034555 | 17 | 290 | 0.0 | 1.6 | 0.00 | 0.00 | 0.00 | 50 | 923.5 |
| 20260503034518 | 17 | 291 | 0.0 | 1.6 | 0.00 | 0.00 | 0.00 | 49 | 923.5 |
| 20260503033039 | 18 | 291 | 1.6 | 3.2 | 0.00 | 0.00 | 0.00 | 47 | 923.3 |
| 20260503031537 | 18 | 276 | 1.6 | 4.8 | 0.00 | 0.00 | 0.00 | 44 | 923.1 |
| 20260503030042 | 20 | 273 | 0.0 | 1.6 | 0.00 | 0.00 | 0.00 | 41 | 923.0 |
| 20260503024536 | 20 | 273 | 0.0 | 1.6 | 0.00 | 0.00 | 0.00 | 38 | 923.0 |
| 20260503023036 | 21 | 273 | 1.6 | 3.2 | 0.00 | 0.00 | 0.00 | 40 | 922.9 |
| 20260503021636 | 22 | 273 | 0.0 | 3.2 | 0.00 | 0.00 | 0.00 | 37 | 922.9 |
| 20260503020032 | 22 | 303 | 1.6 | 4.8 | 0.00 | 0.00 | 0.00 | 35 | 922.8 |
| 20260503014534 | 22 | 283 | 1.6 | 4.8 | 0.00 | 0.00 | 0.00 | 37 | 922.9 |
| 20260503013031 | 22 | 309 | 3.2 | 4.8 | 0.00 | 0.00 | 0.00 | 37 | 922.9 |
| 20260503011530 | 23 | 253 | 3.2 | 4.8 | 0.00 | 0.00 | 0.00 | 38 | 922.9 |
| 20260503010029 | 23 | 290 | 1.6 | 4.8 | 0.00 | 0.00 | 0.00 | 36 | 923.1 |
| 20260503004530 | 23 | 321 | 3.2 | 6.4 | 0.00 | 0.00 | 0.00 | 34 | 923.1 |
| 20260503003041 | 24 | 308 | 3.2 | 9.7 | 0.00 | 0.00 | 0.00 | 33 | 923.1 |
| 20260503001545 | 24 | 306 | 3.2 | 6.4 | 0.00 | 0.00 | 0.00 | 31 | 923.2 |
| 20260503000026 | 24 | 292 | 4.8 | 14.5 | 0.00 | 0.00 | 0.00 | 31 | 923.2 |
| 20260502234524 | 24 | 274 | 4.8 | 8.0 | 0.00 | 0.00 | 0.00 | 31 | 923.3 |
| 20260502233025 | 25 | 279 | 8.0 | 14.5 | 0.00 | 0.00 | 0.00 | 27 | 923.5 |
| 20260502231518 | 25 | 21 | 1.6 | 6.4 | 0.00 | 0.00 | 0.00 | 28 | 923.5 |
| 20260502230017 | 25 | 283 | 6.4 | 11.3 | 0.00 | 0.00 | 0.00 | 25 | 923.6 |
| 20260502224615 | 25 | 313 | 6.4 | 12.9 | 0.00 | 0.00 | 0.00 | 30 | 923.8 |
| 20260502223016 | 25 | 314 | 6.4 | 9.7 | 0.00 | 0.00 | 0.00 | 29 | 923.9 |
| 20260502221508 | 25 | 279 | 9.7 | 19.3 | 0.00 | 0.00 | 0.00 | 23 | 924.0 |
| 20260502220007 | 25 | 279 | 4.8 | 17.7 | 0.00 | 0.00 | 0.00 | 22 | 924.1 |
| 20260502214505 | 25 | 72 | 3.2 | 4.8 | 0.00 | 0.00 | 0.00 | 24 | 924.2 |
| 20260502213005 | 25 | 273 | 0.0 | 8.0 | 0.00 | 0.00 | 0.00 | 26 | 924.3 |
| 20260502211509 | 25 | 332 | 4.8 | 12.9 | 0.00 | 0.00 | 0.00 | 30 | 924.5 |
| 20260502210124 | 25 | 329 | 3.2 | 11.3 | 0.00 | 0.00 | 0.00 | 25 | 924.5 |
| 20260502204557 | 26 | 250 | 0.0 | 8.0 | 0.00 | 0.00 | 0.00 | 24 | 924.6 |
| 20260502203055 | 25 | 284 | 0.0 | 9.7 | 0.00 | 0.00 | 0.00 | 27 | 924.7 |
| 20260502200038 | 25 | 243 | 1.6 | 4.8 | 0.00 | 0.00 | 0.00 | 27 | 924.8 |
| 20260502194538 | 24 | 277 | 3.2 | 11.3 | 0.00 | 0.00 | 0.00 | 26 | 924.9 |
| 20260502193039 | 26 | 134 | 0.0 | 6.4 | 0.00 | 0.00 | 0.00 | 28 | 925.0 |
| 20260502191530 | 25 | 94 | 3.2 | 12.9 | 0.00 | 0.00 | 0.00 | 28 | 925.1 |
| 20260502190029 | 24 | 81 | 3.2 | 9.7 | 0.00 | 0.00 | 0.00 | 27 | 925.2 |
| 20260502184541 | 24 | 77 | 6.4 | 11.3 | 0.00 | 0.00 | 0.00 | 30 | 925.3 |
| 20260502183024 | 24 | 61 | 1.6 | 4.8 | 0.00 | 0.00 | 0.00 | 34 | 925.4 |
| 20260502181523 | 23 | 70 | 3.2 | 8.0 | 0.00 | 0.00 | 0.00 | 33 | 925.4 |
| 20260502163100 | 20 | 65 | 8.0 | 17.7 | 0.00 | 0.00 | 0.00 | 39 | 925.7 |
| 20260502161554 | 19 | 78 | 11.3 | 17.7 | 0.00 | 0.00 | 0.00 | 41 | 925.7 |
| 20260502151538 | 15 | 68 | 8.0 | 9.7 | 0.00 | 0.00 | 0.00 | 61 | 925.8 |
| 20260502123003 | 4 | 285 | 0.0 | 0.0 | 0.00 | 0.00 | 0.00 | 88 | 925.3 |
| 20260502121559 | 5 | 285 | 0.0 | 0.0 | 0.00 | 0.00 | 0.00 | 86 | 925.3 |
| 20260502114600 | 6 | 285 | 0.0 | 6.4 | 0.00 | 0.00 | 0.00 | 87 | 925.3 |
| 20260502113056 | 6 | 214 | 0.0 | 0.0 | 0.00 | 0.00 | 0.00 | 86 | 925.2 |
| 20260502111525 | 6 | 214 | 0.0 | 0.0 | 0.00 | 0.00 | 0.00 | 87 | 925.3 |
| 20260502110025 | 6 | 214 | 0.0 | 0.0 | 0.00 | 0.00 | 0.00 | 86 | 925.2 |
| 20260502104531 | 6 | 214 | 0.0 | 0.0 | 0.00 | 0.00 | 0.00 | 88 | 925.2 |
| 20260502103021 | 6 | 214 | 0.0 | 0.0 | 0.00 | 0.00 | 0.00 | 87 | 925.2 |
| 20260502101521 | 5 | 214 | 0.0 | 0.0 | 0.00 | 0.00 | 0.00 | 89 | 925.2 |
| 20260502091509 | 6 | 214 | 0.0 | 0.0 | 0.00 | 0.00 | 0.00 | 87 | 925.3 |
| 20260502080104 | 7 | 214 | 0.0 | 0.0 | 0.00 | 0.00 | 0.00 | 83 | 925.5 |